[[{"header":{"parameterUnit":"m.s-1","parameterCategory":1,"la1":30.2991,"la2":30.254,"lo1":-89.0895,"lo2":-89.0444,"dy":0.0017,"dx":0.0017,"nx":28,"ny":28,"refTime":"2025-03-20T21:00:00:Z","depth":0,"parameterNumber":2,"parameterNumberName":"U-component_of_WINDS"},"data":[0,0,0,0,0,0,0,0,0,0,0,0,0,0,0,0,0,0,0,0,0,0,0,0,0,0,0,0,0,0,0,0,0,0,0,0,0,0,0,0,0,0,0,0,0,0,0,0,0,0,0,0,0,0,0,0,0,0,1.9379,1.9379,0,1.9438,1.9439,1.944,1.9403,1.9401,1.9399,1.9397,1.9459,1.9463,1.9466,0,0,0,0,0,0,0,0,0,0,0,0,0,1.923,1.9233,1.9378,1.9379,1.938,1.9438,1.9439,1.944,1.9403,1.9401,1.9399,1.9397,1.9458,1.9462,1.9466,0,0,0,0,0,0,0,0,0,0,0,0,0,1.9293,1.9234,1.9378,1.9369,1.9368,1.9438,1.9439,1.944,1.9403,1.9401,1.9398,1.9396,1.9457,1.9462,1.9467,1.955,0,0,1.9482,1.9484,0,0,0,0,0,0,0,0,1.9289,1.9298,1.9369,1.9369,1.9369,1.941,1.9409,1.9477,1.9404,1.939,1.9397,1.9394,1.9445,1.9451,1.9468,1.9553,1.9555,1.9482,1.9485,1.9487,1.9489,0,0,0,0,0,0,0,1.9285,1.9295,1.9402,1.937,1.937,1.936,1.9366,1.9422,1.9432,1.9391,1.9388,1.9396,1.9445,1.9463,1.9469,1.9556,1.9482,1.9486,1.9489,1.9491,1.9707,1.971,0,0,0,0,0,0,1.9281,1.9292,1.94,1.9404,1.9322,1.9365,1.9372,1.94,1.9431,1.9433,1.9398,1.9394,1.9456,1.9463,1.9471,1.9567,1.9487,1.9492,1.9495,1.9705,1.9708,1.9711,0,0,0,0,0,0,1.9278,1.9291,1.9398,1.9347,1.936,1.9371,1.9402,1.9402,1.9421,1.9436,1.9438,1.9416,1.9454,1.9464,1.9529,1.9569,1.9494,1.9499,1.9701,1.9706,1.971,1.9762,0,0,0,0,0,0,1.9274,1.9291,1.9323,1.9348,1.9363,1.9456,1.9405,1.9405,1.9429,1.9425,1.9453,1.9455,1.9453,1.9522,1.9534,1.9574,1.9502,1.9698,1.9703,1.9708,1.9757,1.9768,1.9777,0,0,0,0,0,1.9269,1.9337,1.9325,1.9338,1.9404,1.9458,1.9467,1.9463,1.9433,1.9465,1.9474,1.9454,1.9563,1.9529,1.9543,1.9585,1.9695,1.9702,1.9708,1.9752,1.9765,1.9776,0,0,0,0,0,0,1.9317,1.934,1.9327,1.9405,1.943,1.9452,1.9492,1.9477,1.9511,1.9505,1.9499,1.9506,1.9573,1.9586,1.9548,1.9664,1.9624,1.9634,1.9654,1.9666,1.9676,1.9671,1.9507,0,0,0,0,0,1.9336,1.9379,1.9397,1.9464,1.9477,1.9482,1.9506,1.95,1.9526,1.9537,1.9551,1.9576,1.9615,1.9642,1.968,1.9759,1.9763,1.9794,1.9804,1.9812,1.9819,1.9858,1.9872,1.9732,1.9732,1.9731,0,0,1.9377,1.9395,1.9423,1.9474,1.9492,1.9535,1.9492,1.954,1.9571,1.9544,1.9605,1.9617,1.9644,1.9716,1.9748,1.9728,1.9859,1.982,1.9826,1.9829,1.9866,1.9879,1.9891,1.9736,1.9735,1.9734,0,0,1.9473,1.9492,1.9548,1.9567,1.9595,1.9597,1.9611,1.9635,1.964,1.9702,1.9681,1.9718,1.9787,1.9807,1.9826,1.9925,1.9907,1.9938,1.9989,2.0027,2.0038,2.0047,2.008,2.0092,1.9945,1.9945,1.9946,0,1.952,1.9585,1.9579,1.9627,1.9649,1.9625,1.968,1.9699,1.9738,1.9753,1.973,1.9813,1.9831,1.9905,1.9928,1.9946,1.9959,1.9934,2.0037,2.0046,2.0055,2.0086,2.0099,1.9949,1.9948,1.9948,1.9948,0,1.964,1.9684,1.9726,1.9762,1.9789,1.9841,1.9841,1.9869,1.986,1.9865,1.9925,1.9945,1.9984,2.0002,1.9995,2.0074,2.006,2.0038,1.9997,2.0072,2.0101,2.0113,1.9953,1.9952,1.9951,1.995,0,0,1.9769,1.9798,1.9813,1.9828,1.9856,1.989,1.9939,1.9976,1.9998,2.0026,2.0065,2.0123,2.0101,2.0122,2.0117,2.0151,2.0224,2.0124,2.0124,2.0139,2.0308,2.0323,2.0337,2.0213,2.0215,2.0217,2.0304,0,1.9863,1.9949,1.9944,2.0024,2.0063,2.0039,2.0082,2.0103,2.0108,2.0141,2.0147,2.0186,2.0156,2.0168,2.0201,2.0208,2.0257,2.0202,2.0248,2.0249,2.0239,2.0352,2.0369,2.0451,2.0316,2.0318,2.0319,0,1.9986,2.0015,2.0099,2.0117,2.0133,2.0172,2.0203,2.0236,2.0258,2.0259,2.0282,2.027,2.0318,2.0277,2.0342,2.0304,2.0322,2.0328,2.0331,2.0334,2.0288,2.0355,2.0478,2.0489,2.0338,2.0336,2.0335,0,2.0067,2.0128,2.0185,2.0198,2.0222,2.0249,2.026,2.0279,2.0301,2.0328,2.0342,2.0375,2.0393,2.0419,2.0416,2.0386,2.048,2.044,2.0481,2.0481,2.0501,2.0499,2.0625,2.0516,2.0516,2.0516,2.0516,0,2.0173,2.0224,2.0221,2.0256,2.0312,2.0304,2.0359,2.0367,2.0384,2.0419,2.0402,2.0434,2.0429,2.0462,2.046,2.0512,2.0521,2.0522,2.052,2.0522,2.0522,2.0533,2.0526,2.0519,2.0519,2.0518,2.0517,0,2.0273,2.0273,2.0333,2.0349,2.0354,2.0394,2.0408,2.044,2.0442,2.0486,2.0496,2.0501,2.0538,2.0537,2.058,2.0579,2.0641,2.0635,2.0633,2.0631,2.0671,2.0666,2.0807,2.0824,2.0706,2.0708,2.0709,0,2.0339,2.0377,2.0397,2.0418,2.043,2.0466,2.0487,2.048,2.0503,2.0528,2.0557,2.0592,2.062,2.068,2.0686,2.0718,2.071,2.0757,2.0715,2.0714,2.0708,2.0704,2.0707,2.0765,2.0766,2.0768,2.0768,0,2.0455,2.0452,2.0483,2.0513,2.0538,2.0562,2.0583,2.0602,2.0597,2.0623,2.066,2.0681,2.0723,2.0758,2.0787,2.0798,2.0782,2.0782,2.0792,2.0794,2.079,2.0789,2.0653,2.0778,2.0777,2.0777,2.0776,2.0776,2.0538,2.057,2.0587,2.0621,2.0636,2.0656,2.0685,2.0691,2.0721,2.0754,2.0748,2.0789,2.0807,2.0845,2.0858,2.0889,2.0872,2.0889,2.0892,2.0896,2.0899,2.0787,2.0895,2.0895,2.0894,2.0894,2.0894,0,2.0651,2.066,2.0691,2.0721,2.0747,2.0728,2.075,2.0773,2.0809,2.0827,2.0853,2.0894,2.0926,2.0934,2.0965,2.0988,2.0981,2.0996,2.0993,2.0995,2.0913,2.09,2.1001,2.1001,2.1001,2.1001,2.1001,2.1001,2.0712,2.0763,2.0762,2.082,2.0829,2.0867,2.0881,2.0898,2.0912,2.0958,2.0984,2.0989,2.1002,2.1033,2.1061,2.1062,2.1073,2.1091,2.1089,2.1012,2.1001,2.0991,2.0978,2.1094,2.1094,2.1168,2.1168,2.1169]},{"header":{"parameterUnit":"m.s-1","parameterCategory":1,"la1":30.2991,"la2":30.254,"lo1":-89.0895,"lo2":-89.0444,"dy":0.0017,"dx":0.0017,"nx":28,"ny":28,"refTime":"2025-03-20T21:00:00:Z","depth":0,"parameterNumber":3,"parameterNumberName":"V-component_of_WINDS"},"data":[0,0,0,0,0,0,0,0,0,0,0,0,0,0,0,0,0,0,0,0,0,0,0,0,0,0,0,0,0,0,0,0,0,0,0,0,0,0,0,0,0,0,0,0,0,0,0,0,0,0,0,0,0,0,0,0,0,0,4.9239,4.9239,0,4.9303,4.9303,4.9304,4.9244,4.9241,4.9239,4.9237,4.9298,4.9302,4.9306,0,0,0,0,0,0,0,0,0,0,0,0,0,4.9058,4.9062,4.9238,4.9239,4.924,4.9302,4.9303,4.9304,4.9244,4.9241,4.9238,4.9236,4.9297,4.9302,4.9306,0,0,0,0,0,0,0,0,0,0,0,0,0,4.9131,4.9063,4.9238,4.9218,4.9217,4.9302,4.9303,4.9304,4.9245,4.9241,4.9238,4.9234,4.9296,4.9301,4.9307,4.9415,0,0,4.9325,4.9327,0,0,0,0,0,0,0,0,4.9127,4.9137,4.922,4.9219,4.9218,4.9262,4.9262,4.9341,4.9246,4.9234,4.9237,4.9233,4.9289,4.9295,4.9315,4.9418,4.942,4.9325,4.9329,4.9331,4.9333,0,0,0,0,0,0,0,4.9122,4.9134,4.9264,4.9221,4.922,4.9203,4.921,4.9277,4.9281,4.9235,4.9231,4.9239,4.9288,4.9309,4.9316,4.9421,4.9325,4.933,4.9334,4.9336,4.9612,4.9615,0,0,0,0,0,0,4.912,4.9131,4.9262,4.9266,4.9163,4.921,4.9217,4.9251,4.928,4.9281,4.9242,4.9236,4.9301,4.9309,4.9318,4.9443,4.9331,4.9337,4.934,4.9608,4.9612,4.9617,0,0,0,0,0,0,4.9116,4.9132,4.9259,4.9197,4.9212,4.9217,4.9256,4.9254,4.9276,4.9286,4.9285,4.9264,4.9299,4.9309,4.939,4.9444,4.9339,4.9345,4.9603,4.9609,4.9614,4.9696,0,0,0,0,0,0,4.9111,4.9131,4.9174,4.9198,4.9216,4.9333,4.9259,4.9258,4.9287,4.9279,4.9306,4.9307,4.9297,4.9382,4.9396,4.945,4.9349,4.9598,4.9606,4.9613,4.9688,4.9704,4.9717,0,0,0,0,0,4.9105,4.9194,4.9176,4.9192,4.9269,4.9336,4.9346,4.9333,4.9292,4.9333,4.9338,4.9306,4.9437,4.9391,4.9406,4.9463,4.9595,4.9604,4.9612,4.9682,4.9701,4.9716,0,0,0,0,0,0,4.9175,4.9197,4.9177,4.9278,4.9306,4.9326,4.9378,4.9354,4.9393,4.9385,4.9366,4.9373,4.9458,4.9469,4.9418,4.9567,4.9509,4.9521,4.9556,4.9574,4.9588,4.9582,4.9354,0,0,0,0,0,4.9202,4.9256,4.9272,4.9359,4.9374,4.9374,4.9403,4.9391,4.9418,4.9429,4.9441,4.9467,4.9514,4.9545,4.9589,4.969,4.9693,4.9736,4.975,4.9762,4.9772,4.9823,4.9841,4.9645,4.9645,4.9645,0,0,4.9258,4.9277,4.9313,4.9373,4.9393,4.9447,4.9384,4.9445,4.9484,4.9438,4.9514,4.9524,4.9552,4.9643,4.9684,4.9655,4.9827,4.9773,4.9782,4.9786,4.9833,4.9852,4.9868,4.9651,4.965,4.9649,0,0,4.9388,4.941,4.9482,4.9504,4.9535,4.9534,4.9552,4.9576,4.958,4.9657,4.9622,4.9668,4.975,4.977,4.9791,4.9926,4.9897,4.9941,5.0015,5.0064,5.008,5.0093,5.0138,5.0155,4.9952,4.9952,4.9952,0,4.9454,4.9536,4.9523,4.9585,4.9611,4.9573,4.9645,4.9666,4.9709,4.9727,4.9695,4.9794,4.9811,4.9904,4.9937,4.9957,4.9973,4.9937,5.0079,5.0092,5.0105,5.0147,5.0164,4.9957,4.9956,4.9956,4.9955,0,4.9613,4.967,4.9725,4.9768,4.9801,4.9868,4.9862,4.9896,4.9881,4.9883,4.996,4.9978,5.0023,5.0045,5.0031,5.0135,5.0116,5.0082,5.0022,5.0128,5.0168,5.0184,4.9964,4.9962,4.9961,4.9959,0,0,4.9789,4.9823,4.9843,4.986,4.9891,4.9934,4.9998,5.0043,5.0071,5.0102,5.0153,5.0222,5.0189,5.0213,5.0201,5.0245,5.0347,5.0205,5.0205,5.0228,5.0459,5.0482,5.0502,5.0328,5.0331,5.0334,5.0455,0,4.9917,5.0029,5.0018,5.0123,5.0173,5.0137,5.0192,5.0216,5.0219,5.026,5.0263,5.0311,5.0266,5.028,5.0322,5.0326,5.0392,5.0317,5.0372,5.0374,5.0364,5.0523,5.0549,5.0663,5.0471,5.0474,5.0476,0,5.0082,5.0118,5.0229,5.0249,5.027,5.032,5.0358,5.04,5.0424,5.0423,5.0449,5.0429,5.049,5.0431,5.0513,5.0462,5.0484,5.0489,5.0493,5.0496,5.043,5.0527,5.0699,5.0715,5.0501,5.0499,5.0497,0,5.0194,5.0271,5.0346,5.0363,5.039,5.0425,5.0438,5.0459,5.0486,5.0519,5.0535,5.0576,5.0597,5.0627,5.0617,5.0576,5.07,5.0641,5.0698,5.0698,5.0724,5.0722,5.0899,5.0743,5.0743,5.0743,5.0742,0,5.0337,5.0405,5.0397,5.0443,5.0517,5.0503,5.0576,5.0584,5.0603,5.0648,5.0619,5.0661,5.0646,5.0687,5.068,5.0747,5.0758,5.0756,5.0753,5.0757,5.0757,5.0769,5.076,5.0747,5.0746,5.0745,5.0745,0,5.0474,5.0472,5.0551,5.057,5.0576,5.0629,5.0644,5.0686,5.0686,5.0743,5.0755,5.0755,5.0802,5.0795,5.0847,5.0841,5.0924,5.0913,5.0916,5.0912,5.0968,5.0962,5.1158,5.1181,5.1013,5.1014,5.1016,0,5.0564,5.0616,5.0639,5.0668,5.0683,5.0729,5.0756,5.0743,5.0772,5.0803,5.084,5.0884,5.0918,5.0994,5.0997,5.1036,5.1023,5.1089,5.1028,5.103,5.102,5.1016,5.1019,5.11,5.1102,5.1103,5.1105,0,5.0723,5.0719,5.0759,5.0799,5.0832,5.0862,5.0889,5.0914,5.0903,5.0936,5.0984,5.101,5.1062,5.1105,5.1141,5.1151,5.1125,5.1124,5.1138,5.1142,5.1141,5.1139,5.0945,5.1119,5.1117,5.1116,5.1116,5.1115,5.0837,5.088,5.0902,5.0947,5.0966,5.0992,5.1031,5.1036,5.1076,5.1118,5.1108,5.116,5.1181,5.1226,5.1241,5.128,5.1256,5.1278,5.1283,5.1288,5.1293,5.1137,5.1287,5.1287,5.1286,5.1286,5.1286,0,5.0991,5.1003,5.1045,5.1084,5.1119,5.1093,5.1121,5.1151,5.1198,5.122,5.1254,5.1307,5.1348,5.1354,5.1392,5.1423,5.1411,5.1433,5.1429,5.1431,5.1314,5.1296,5.1441,5.1441,5.1441,5.1441,5.1441,5.1441,5.1075,5.1145,5.1143,5.1221,5.1232,5.1284,5.1302,5.1324,5.1342,5.1402,5.1436,5.144,5.1455,5.1494,5.1529,5.153,5.1544,5.1569,5.1565,5.1455,5.144,5.1425,5.1408,5.1573,5.1574,5.1678,5.1679,5.168]}]]